Weather History for KGYY - September, 2014

Change the Weather History Date:

Saturday, September 20, 2014

  Actual Average (KMDW) Record (KMDW)
Temperature  
Mean Temperature 71 °F 65 °F  
Max Temperature 82 °F 74 °F 92 °F (1931)
Min Temperature 62 °F 56 °F 38 °F (1956)
Degree Days  
Heating Degree Days 0 3  
Month to date heating degree days 32  
Since 1 July heating degree days 37  
Cooling Degree Days 6 3  
Month to date cooling degree days 100  
Year to date cooling degree days 1010  
Growing Degree Days 21 (Base 50)    
Moisture  
Dew Point 60 °F    
Average Humidity 76    
Maximum Humidity 96    
Minimum Humidity 57    
Precipitation  
Precipitation 0.00 in 0.12 in 1.12 in (1967)
Month to date precipitation 2.26  
Year to date precipitation 28.81  
Sea Level Pressure  
Sea Level Pressure 29.88 in    
Wind  
Wind Speed 7 mph (SSW)    
Max Wind Speed 18 mph    
Max Gust Speed 33 mph    
Visibility 9 miles    
Events      
T = Trace of Precipitation, MM = Missing Value Source: NWS Daily Summary

Daily Weather History Graph

Daily Weather History Graph

Search for Another Location

Airport or City:

Trip Planner

Search our weather history database for the weather conditions in past years. The results will help you decide how hot, cold, wet, or windy it might be!

Date:

Astronomy

Sep. 20, 2014 Rise Set
Actual Time 6:35 AM CDT 6:50 PM CDT
Civil Twilight 6:07 AM CDT 7:18 PM CDT
Nautical Twilight 5:34 AM CDT 7:50 PM CDT
Astronomical Twilight 5:01 AM CDT 8:23 PM CDT
Moon 3:11 AM CDT (9/20) 4:55 PM CDT (9/20)
Length of Visible Light 13h 10m
Length of Day
12h 15m
Waning Crescent, 11% of the Moon is Illuminated
Sep 20
Waning Crescent
Sep 24
New
Oct 1
First Quarter
Oct 8
Full
Oct 15
Last Quarter

Hourly Weather History & Observations

Time (CDT) Temp. Heat Index Dew Point Humidity Pressure Visibility Wind Dir Wind Speed Gust Speed Precip Events Conditions
12:15 AM 65.3 °F - 49.6 °F 57% 29.95 in 10.0 mi South 9.2 mph 16.1 mph N/A   Clear
12:35 AM 64.8 °F - 50.0 °F 59% 29.95 in 10.0 mi South 8.1 mph - N/A   Clear
12:55 AM 64.4 °F - 50.4 °F 60% 29.94 in 10.0 mi South 6.9 mph - N/A   Clear
1:15 AM 64.0 °F - 50.7 °F 62% 29.94 in 10.0 mi South 5.8 mph - N/A   Clear
1:35 AM 63.7 °F - 50.9 °F 63% 29.95 in 10.0 mi South 5.8 mph - N/A   Clear
1:55 AM 63.5 °F - 51.3 °F 64% 29.97 in 10.0 mi Calm Calm - N/A   Clear
2:15 AM 63.0 °F - 51.3 °F 66% 29.97 in 10.0 mi South 4.6 mph - N/A   Clear
2:35 AM 62.6 °F - 51.8 °F 68% 29.97 in 10.0 mi South 5.8 mph - N/A   Clear
2:55 AM 62.2 °F - 51.8 °F 69% 29.96 in 10.0 mi South 5.8 mph - N/A   Clear
3:15 AM 62.4 °F - 51.8 °F 68% 29.95 in 10.0 mi South 5.8 mph - N/A   Clear
3:35 AM 62.6 °F - 52.0 °F 68% 29.95 in 10.0 mi South 5.8 mph - N/A   Clear
3:55 AM 62.1 °F - 52.2 °F 70% 29.94 in 10.0 mi South 8.1 mph - N/A   Clear
4:15 AM 62.6 °F - 52.2 °F 69% 29.95 in 10.0 mi SSW 8.1 mph - N/A   Clear
4:45 AM 62.6 °F - 51.8 °F 68% 29.95 in 10.0 mi South 8.1 mph - N/A   Clear
5:45 AM 62.6 °F - 53.6 °F 72% 29.95 in 10.0 mi SSW 13.8 mph - N/A   Partly Cloudy
6:45 AM 62.6 °F - 53.6 °F 72% 29.96 in 10.0 mi North - - N/A   Mostly Cloudy
7:45 AM 64.4 °F - 55.4 °F 73% 29.95 in 10.0 mi South 10.4 mph - N/A   Mostly Cloudy
8:45 AM 66.2 °F - 57.2 °F 73% 29.93 in 10.0 mi SSW 12.7 mph - N/A   Unknown
9:45 AM 69.8 °F - 59.0 °F 68% 29.92 in 10.0 mi SW 11.5 mph - N/A   Overcast
10:45 AM 73.4 °F - 62.6 °F 69% 29.89 in 10.0 mi SSW 17.3 mph - N/A   Mostly Cloudy
11:45 AM 77.0 °F - 64.4 °F 65% 29.87 in 10.0 mi SSW 13.8 mph - N/A   Mostly Cloudy
12:45 PM 80.6 °F 82.3 °F 64.4 °F 58% 29.86 in 10.0 mi SSW 18.4 mph 29.9 mph N/A   Mostly Cloudy
1:45 PM 80.6 °F 82.3 °F 64.4 °F 58% 29.85 in 10.0 mi SSW 17.3 mph 33.4 mph N/A   Mostly Cloudy
2:45 PM 77.0 °F - 68.0 °F 74% 29.85 in 10.0 mi West 11.5 mph - N/A   Mostly Cloudy
3:45 PM 71.6 °F - 66.2 °F 83% 29.84 in 10.0 mi SW 11.5 mph - N/A   Overcast
4:45 PM 69.8 °F - 66.2 °F 88% 29.82 in 10.0 mi South 8.1 mph - N/A   Mostly Cloudy
5:45 PM 73.4 °F - 68.0 °F 83% 29.80 in 10.0 mi SW 3.5 mph - N/A   Scattered Clouds
6:45 PM 73.4 °F - 68.0 °F 83% 29.82 in 10.0 mi SSW 3.5 mph - N/A   Mostly Cloudy
8:45 PM 71.6 °F - 66.2 °F 83% 29.82 in 10.0 mi South 3.5 mph - N/A   Mostly Cloudy
9:15 PM 70.2 °F - 66.7 °F 89% 29.80 in 10.0 mi Calm Calm - N/A   Scattered Clouds
9:35 PM 69.8 °F - 67.1 °F 91% 29.79 in 7.0 mi Calm Calm - N/A   Clear
9:45 PM 69.8 °F - 68.0 °F 94% 29.79 in 10.0 mi South 4.6 mph - N/A   Scattered Clouds
9:55 PM 69.8 °F - 67.6 °F 93% 29.79 in 5.0 mi Calm Calm - N/A   Scattered Clouds
10:15 PM 69.8 °F - 68.2 °F 95% 29.78 in 5.0 mi Calm Calm - N/A   Scattered Clouds
10:35 PM 69.8 °F - 68.2 °F 95% 29.78 in 4.0 mi Calm Calm - N/A   Scattered Clouds
10:55 PM 70.0 °F - 68.5 °F 95% 29.78 in 5.0 mi South 3.5 mph - N/A   Scattered Clouds
11:15 PM 70.2 °F - 68.9 °F 96% 29.78 in 5.0 mi SSW 3.5 mph - N/A   Scattered Clouds
11:35 PM 70.7 °F - 69.1 °F 95% 29.77 in 5.0 mi South 4.6 mph - N/A   Scattered Clouds
11:55 PM 70.9 °F - 68.7 °F 93% 29.75 in 5.0 mi SSW 5.8 mph - N/A   Clear